Regional Weather Roundup
Issued by NWS

Home | Current Version | Previous Version | Text Only | Print | Product List | Glossary On
Versions: 1 2 3 4 5 6 7 8 9 10 11 12 13 14 15 16 17 18 19 20 21 22 23 24 25 26 27 28 29 30 31 32 33 34 35 36 37 38 39 40 41 42 43 44 45 46 47 48 49 50
000
ASCA42 TJSJ 221711
RWRPR
PUERTO RICO/U.S. VIRGIN ISLANDS HOURLY WEATHER ROUNDUP
NATIONAL WEATHER SERVICE SAN JUAN PR
100 PM AST TUE JUL 22 2014

PRZ001-004-221800-
PUERTO RICO

CITY           SKY/WX    TMP DP  RH WIND       PRES   REMARKS
SAN JUAN LMM   MOSUNNY   88  75  66 NE20      30.07F HX  97
PONCE          MOSUNNY   90  77  66 SE17G23   30.03S HX 102
MAYAGUEZ       PTSUNNY   90  68  48 W13       30.06F HX  93
AGUADILLA      MOSUNNY   84  73  70 E18       30.08F HX  91
CEIBA          PTSUNNY   88  73  62 E10       30.10F HX  96
$$

PRZ006-007-221800-
U.S. VIRGIN ISLANDS

CITY           SKY/WX    TMP DP  RH WIND       PRES   REMARKS
CHARLOTTE AMA  SUNNY     88  75  66 SE17      30.07F HX  97
CHRISTIANSTED  LGT RAIN  81  75  83 SE6       30.09S
$$

HOURLY WEATHER ROUNDUP FOR THE NEWS MEDIA

CITY           SKY/WX    TMP DP  RH WIND       PRES   REMARKS
MIAMI          CLOUDY    85  76  74 S9        30.07F HX  94
ORLANDO        MOSUNNY   88  75  65 VRB3      30.06F HX  97
NEW YORK       MOSUNNY   83  67  58 S12       30.14F
NEWARK         MOSUNNY   86  67  52 SW8G23    30.12F
CHICAGO        PTSUNNY   83  66  56 SW13G22   30.00S
HARTFORD       SUNNY     85  70  60 SW6       30.11S
BOSTON         MOSUNNY   78  66  66 E12       30.10F
DALLAS         MOSUNNY   90  74  59 CALM      30.06F HX  99
PHILADELPHIA   MOSUNNY   84  63  49 SW8       30.15F



USA.gov is the U.S. government's official web portal to all federal, state and local government web resources and services.